Weather History for Kansas City International, MO

Change the Weather History Date:

Sunday, June 16, 2013

  Actual Average Record
Temperature  
Mean Temperature 73 °F 74 °F  
Max Temperature 81 °F 84 °F 102 °F (1946)
Min Temperature 65 °F 64 °F 51 °F (1989)
Degree Days  
Heating Degree Days 0 0  
Month to date heating degree days 17 7  
Since 1 June heating degree days 17 7  
Since 1 July heating degree days 5202 5131  
Cooling Degree Days 8 9  
Month to date cooling degree days 90 115  
Year to date cooling degree days 195 231  
Since 1 June cooling degree days 90 115  
Growing Degree Days 22 (Base 50)    
Moisture  
Dew Point 68 °F    
Average Humidity 84    
Maximum Humidity 93    
Minimum Humidity 74    
Precipitation  
Precipitation 0.00 in 0.18 in 2.18 in (1996)
Month to date precipitation 1.86 2.84  
Year to date precipitation 16.79 16.67  
Snow  
Snow 0.00 in 0.00 in 0.00 in ()
Month to date snowfall 0.0 0.0  
Since 1 June snowfall 0.0 0.0  
Since 1 July snowfall 31.8 18.8  
Snow Depth 0.00 in    
Sea Level Pressure  
Sea Level Pressure 29.94 in    
Wind  
Wind Speed 4 mph (ENE)    
Max Wind Speed 7 mph    
Max Gust Speed -    
Visibility 7 miles    
Events      
T = Trace of Precipitation, MM = Missing Value Source: NWS Daily Summary

Daily Weather History Graph

Daily Weather History Graph

Search for Another Location

Airport:

Trip Planner

Search our weather history database for the weather conditions in past years. The results will help you decide how hot, cold, wet, or windy it might be!

Date:

Astronomy

Jun. 16, 2013 Rise Set
Actual Time 5:51 AM CDT 8:47 PM CDT
Civil Twilight 5:19 AM CDT 9:20 PM CDT
Nautical Twilight 4:38 AM CDT 10:00 PM CDT
Astronomical Twilight 3:51 AM CDT 10:48 PM CDT
Moon 1:26 PM CDT 12:55 AM CDT
Length of Visible Light 16h 00m
Length of Day
14h 55m
Waxing Crescent, 50% of the Moon is Illuminated
Jun 16
Waxing Crescent
Jun 16
First Quarter
Jun 23
Full
Jun 29
Last Quarter
Jul 8
New

Hourly Weather History & Observations

Time (CDT) Temp. Dew Point Humidity Pressure Visibility Wind Dir Wind Speed Gust Speed Precip Events Conditions
12:53 AM 66.0 °F 63.0 °F 90% 29.93 in 10.0 mi Calm Calm - N/A   Partly Cloudy
1:53 AM 66.0 °F 64.0 °F 93% 29.92 in 10.0 mi South 3.5 mph - N/A   Overcast
2:53 AM 66.0 °F 64.0 °F 93% 29.93 in 10.0 mi Calm Calm - N/A   Overcast
3:53 AM 66.0 °F 63.0 °F 90% 29.93 in 9.0 mi SSW 3.5 mph - N/A   Overcast
4:35 AM 66.2 °F 64.4 °F 94% 29.95 in 10.0 mi Calm Calm - N/A   Mostly Cloudy
4:53 AM 66.9 °F 64.9 °F 93% 29.94 in 10.0 mi Calm Calm - N/A   Overcast
5:21 AM 66.2 °F 64.4 °F 94% 29.94 in 10.0 mi SSE 6.9 mph - N/A   Overcast
5:53 AM 68.0 °F 64.9 °F 90% 29.93 in 10.0 mi SSE 4.6 mph - N/A   Overcast
6:25 AM 68.0 °F 66.2 °F 94% 29.95 in 1.2 mi SSE 5.8 mph - N/A   Overcast
6:53 AM 68.0 °F 66.0 °F 93% 29.93 in 3.0 mi SSE 4.6 mph - N/A   Overcast
7:53 AM 70.0 °F 66.9 °F 90% 29.94 in 8.0 mi South 5.8 mph - N/A   Overcast
8:53 AM 72.0 °F 68.0 °F 87% 29.95 in 8.0 mi South 5.8 mph - N/A   Overcast
9:47 AM 71.6 °F 68.0 °F 88% 29.96 in 2.0 mi NNE 3.5 mph - N/A   Overcast
9:53 AM 72.0 °F 69.1 °F 91% 29.94 in 1.8 mi North 3.5 mph - N/A   Overcast
10:35 AM 71.6 °F 69.8 °F 94% 29.97 in 0.8 mi NE 3.5 mph - N/A   Overcast
10:53 AM 72.0 °F 69.1 °F 91% 29.95 in 0.8 mi NNE 3.5 mph - N/A   Overcast
11:14 AM 73.4 °F 69.8 °F 88% 29.97 in 2.0 mi NE 4.6 mph - N/A   Overcast
11:38 AM 73.4 °F 68.0 °F 83% 29.98 in 3.0 mi NE 4.6 mph - N/A   Overcast
11:53 AM 73.9 °F 69.1 °F 85% 29.96 in 3.0 mi NE 5.8 mph - N/A   Overcast
12:53 PM 75.0 °F 69.1 °F 82% 29.96 in 6.0 mi ENE 4.6 mph - N/A   Haze
1:53 PM 77.0 °F 70.0 °F 79% 29.96 in 9.0 mi ESE 6.9 mph - N/A   Overcast
2:12 PM 78.8 °F 69.8 °F 74% 29.98 in 9.0 mi Variable 4.6 mph - N/A   Mostly Cloudy
2:53 PM 79.0 °F 69.1 °F 72% 29.95 in 10.0 mi Calm Calm - N/A   Overcast
3:53 PM 79.0 °F 70.0 °F 74% 29.94 in 10.0 mi NE 4.6 mph - N/A   Overcast
4:53 PM 79.0 °F 70.0 °F 74% 29.94 in 10.0 mi NE 6.9 mph - N/A   Overcast
5:53 PM 78.1 °F 69.1 °F 74% 29.93 in 10.0 mi NNE 6.9 mph - N/A   Overcast
6:53 PM 79.0 °F 69.1 °F 72% 29.91 in 10.0 mi ENE 6.9 mph - N/A   Scattered Clouds
7:53 PM 77.0 °F 69.1 °F 76% 29.91 in 10.0 mi ENE 5.8 mph - N/A   Scattered Clouds
8:53 PM 75.0 °F 69.1 °F 82% 29.94 in 10.0 mi NE 6.9 mph - N/A   Mostly Cloudy
9:53 PM 72.0 °F 68.0 °F 87% 29.95 in 10.0 mi Calm Calm - N/A   Mostly Cloudy
10:53 PM 73.0 °F 69.1 °F 87% 29.96 in 10.0 mi East 3.5 mph - N/A   Scattered Clouds
11:53 PM 73.0 °F 69.1 °F 87% 29.94 in 7.0 mi NE 5.8 mph - N/A   Overcast